TimeCST,TemperatureF,Dew PointF,Humidity,Sea Level PressureIn,VisibilityMPH,Wind Direction,Wind SpeedMPH,Gust SpeedMPH,PrecipitationIn,Events,Conditions,WindDirDegrees,DateUTC
12:53 AM,48.9,42.1,77,30.05,10.0,South,6.9,-,N/A,,Mostly Cloudy,180,2012-12-07 06:53:00
1:04 AM,50.0,42.8,76,30.06,10.0,South,5.8,-,N/A,,Mostly Cloudy,190,2012-12-07 07:04:00
1:53 AM,51.1,45.0,80,30.05,10.0,South,6.9,17.3,N/A,,Overcast,180,2012-12-07 07:53:00
2:18 AM,51.8,44.6,76,30.06,10.0,South,10.4,-,N/A,,Mostly Cloudy,180,2012-12-07 08:18:00
2:53 AM,51.1,45.0,80,30.04,10.0,South,6.9,-,N/A,,Overcast,180,2012-12-07 08:53:00
3:17 AM,51.8,44.6,76,30.05,10.0,South,9.2,-,N/A,,Overcast,190,2012-12-07 09:17:00
3:42 AM,51.8,44.6,76,30.05,10.0,South,10.4,17.3,N/A,,Mostly Cloudy,180,2012-12-07 09:42:00
3:53 AM,51.1,45.0,80,30.04,10.0,South,9.2,-,N/A,,Mostly Cloudy,180,2012-12-07 09:53:00
4:53 AM,50.0,45.0,83,30.03,10.0,Variable,6.9,-,N/A,,Overcast,0,2012-12-07 10:53:00
5:41 AM,50.0,44.6,82,30.05,10.0,South,10.4,16.1,N/A,,Overcast,170,2012-12-07 11:41:00
5:53 AM,50.0,45.0,83,30.04,10.0,South,6.9,-,N/A,,Overcast,170,2012-12-07 11:53:00
6:26 AM,50.0,46.4,87,30.06,10.0,South,10.4,19.6,N/A,,Overcast,190,2012-12-07 12:26:00
6:53 AM,50.0,46.0,86,30.05,9.0,South,10.4,18.4,N/A,,Overcast,180,2012-12-07 12:53:00
7:53 AM,51.1,46.9,86,30.05,8.0,Variable,6.9,-,N/A,,Overcast,0,2012-12-07 13:53:00
8:53 AM,53.1,48.0,83,30.06,9.0,South,6.9,-,N/A,,Overcast,190,2012-12-07 14:53:00
9:51 AM,53.6,48.2,82,30.06,10.0,South,5.8,19.6,N/A,,Mostly Cloudy,180,2012-12-07 15:51:00
9:53 AM,55.0,48.0,77,30.05,10.0,South,8.1,19.6,N/A,,Mostly Cloudy,170,2012-12-07 15:53:00
10:13 AM,55.4,48.2,77,30.05,10.0,South,8.1,-,N/A,,Mostly Cloudy,180,2012-12-07 16:13:00
10:53 AM,55.9,48.0,75,30.02,10.0,SSE,8.1,-,N/A,,Clear,150,2012-12-07 16:53:00
11:53 AM,57.9,48.9,72,29.99,10.0,South,8.1,-,N/A,,Clear,180,2012-12-07 17:53:00
1:53 PM,59.0,48.0,67,29.94,10.0,South,9.2,-,N/A,,Overcast,170,2012-12-07 19:53:00
2:53 PM,57.9,48.0,70,29.94,10.0,South,8.1,-,N/A,,Overcast,170,2012-12-07 20:53:00
3:53 PM,57.9,48.0,70,29.94,10.0,Variable,5.8,-,N/A,,Overcast,0,2012-12-07 21:53:00
4:53 PM,55.9,48.9,77,29.94,10.0,Calm,Calm,-,N/A,,Overcast,0,2012-12-07 22:53:00
5:53 PM,54.0,48.9,83,29.95,10.0,South,3.5,-,N/A,,Overcast,170,2012-12-07 23:53:00
7:03 PM,53.6,48.2,82,29.97,10.0,South,3.5,-,N/A,,Mostly Cloudy,170,2012-12-08 01:03:00
8:53 PM,55.9,48.9,77,29.97,10.0,South,3.5,-,N/A,,Overcast,180,2012-12-08 02:53:00
9:18 PM,55.4,48.2,77,29.99,10.0,South,5.8,-,N/A,,Overcast,170,2012-12-08 03:18:00
9:53 PM,55.0,48.9,80,29.97,10.0,South,5.8,-,N/A,,Overcast,180,2012-12-08 03:53:00
10:31 PM,55.4,48.2,77,29.99,10.0,South,5.8,-,N/A,,Overcast,190,2012-12-08 04:31:00
10:53 PM,55.9,48.9,77,29.97,10.0,South,5.8,-,N/A,,Overcast,180,2012-12-08 04:53:00
11:09 PM,55.4,48.2,77,29.99,10.0,Calm,Calm,-,N/A,,Mostly Cloudy,0,2012-12-08 05:09:00
11:27 PM,55.4,48.2,77,29.98,10.0,South,3.5,-,N/A,,Mostly Cloudy,180,2012-12-08 05:27:00
11:38 PM,55.4,48.2,77,29.99,10.0,Variable,3.5,-,N/A,,Overcast,0,2012-12-08 05:38:00
11:50 PM,55.4,48.2,77,29.98,10.0,South,5.8,-,N/A,,Overcast,170,2012-12-08 05:50:00
11:53 PM,55.9,48.9,77,29.96,10.0,South,5.8,-,N/A,,Overcast,190,2012-12-08 05:53:00